Regional Weather Roundup
Issued by NWS

Home | Current Version | Previous Version | Text Only | Print | Product List | Glossary On
Versions: 1 2 3 4 5 6 7 8 9 10 11 12 13 14 15 16 17 18 19 20 21 22 23 24 25 26 27 28 29 30 31 32 33 34 35 36 37 38 39 40 41 42 43 44 45 46 47 48 49 50
000
ASUS43 KDTX 271310
RWRMI
MICHIGAN HOURLY REGIONAL WEATHER ROUNDUP
NATIONAL WEATHER SERVICE DETROIT/PONTIAC MI
900 AM EDT WED AUG 27 2014

NOTE: "FAIR" INDICATES FEW OR NO CLOUDS BELOW 12,000 FEET WITH NO
SIGNIFICANT WEATHER AND/OR OBSTRUCTION TO VISIBILITY.

MIZ047>049-052>055-059>063-066>070-074>076-081>083-271400-
SOUTHEAST LOWER MICHIGAN

CITY           SKY/WX    TMP DP  RH WIND       PRES   REMARKS
ADRIAN         CLOUDY    66  65  96 N5        30.13S FOG
ALMA           LGT RAIN  60  58  92 N6        30.17R
ANN ARBOR      CLOUDY    67  61  81 NE6       30.13R
BAD AXE        MOSUNNY   63  59  88 N6        30.15F
CARO           PTSUNNY   64  58  82 N5        30.16R
DETROIT CITY   CLOUDY    69  58  67 N6        30.13R
DETROIT        CLOUDY    69  63  81 N6        30.13R
FLINT          PTSUNNY   68  56  65 NE8       30.15R
GROSSE ILE     CLOUDY    68  63  83 NE13      30.11R
HILLSDALE      FOG       64  64 100 CALM      30.13S VSB 3/4
HOWELL         CLOUDY    64  63  96 NE5       30.14S

CITY           SKY/WX    TMP DP  RH WIND       PRES   REMARKS
JACKSON        FOG       65  63  93 CALM      30.13S VSB 1
LAMBERTVILLE   CLOUDY    70  64  83 CALM      30.11S
LANSING        PTSUNNY   63  60  90 N6        30.16R
LAPEER         CLOUDY    63  58  83 CALM      30.15S
MASON          CLOUDY    63  62  96 NE6       30.14S
MONROE         PTSUNNY   70  64  83 N5        30.10R
MT. CLEMENS    MOSUNNY   67  56  67 N7        30.12R
PONTIAC        PTSUNNY   65  57  75 NE8       30.13R
PORT HOPE        N/A     64  55  72 NW7       30.13R
PORT HURON     MOSUNNY   64  59  82 CALM      30.14R
TRI CITIES     CLOUDY    62  55  77 N6        30.18R
TROY           CLOUDY    67  58  71 NE6       30.15S
SAGINAW HB     PTSUNNY   63  63 100 CALM      30.16R
$$
MIZ043>046-050>051-056>058-064>065-071>073-077>080-271400-
SOUTHWEST LOWER MICHIGAN

CITY           SKY/WX    TMP DP  RH WIND       PRES   REMARKS
BATTLE CREEK   PTSUNNY   64  59  83 N5        30.15R
BENTON HARBOR  MOSUNNY   63  60  90 CALM      30.15R
BIG RAPIDS     CLOUDY    59  59 100 CALM      30.17S
COLDWATER      PTSUNNY   66  64  93 E3        30.13S
FREMONT        FAIR      61  58  90 E6        30.16F
HOLLAND        PTSUNNY   65  60  84 NE3       30.17R
GRAND RAPIDS   CLOUDY    62  62 100 N7        30.17R
IONIA          FAIR      61  59  94 N3        30.15S
KALAMAZOO      PTSUNNY   64  60  87 N7        30.16R
LUDINGTON      PTSUNNY   60  57  91 E3        30.16F
MARSHALL       MOSUNNY   63  61  92 CALM      30.14R
MOUNT PLEASANT CLOUDY    57  56  96 CALM      30.17S
MUSKEGON       PTSUNNY   64  59  83 E6        30.15F
SOUTH HAVEN    PTSUNNY   64  61  91 NE3       30.16R
$$
MIZ016>042-271400-
NORTHERN LOWER MICHIGAN

CITY           SKY/WX    TMP DP  RH WIND       PRES   REMARKS
ALPENA         PTSUNNY   57  52  83 W6        30.15R
BEAVER ISLAND  CLOUDY    58  55  88 CALM      30.15F
BELLAIRE       CLOUDY    57  55  92 CALM      30.15S
CADILLAC       PTSUNNY   57  56  96 CALM      30.17R
CHARLEVOIX     CLOUDY    61  55  80 NW5       30.18S
FRANKFORT      PTSUNNY   62  54  75 CALM      30.17R
GAYLORD        PTSUNNY   54  51  90 SW5       30.16S
GRAYLING       PTSUNNY   57  54  89 CALM      30.16F
HARBOR SPRINGS LGT RAIN  58  55  90 CALM      30.15S
HOUGHTON LAKE  PTSUNNY   56  54  93 CALM      30.16S
MANISTEE       PTSUNNY   57  55  94 CALM      30.17R
OSCODA         CLOUDY    57  53  88 NW5       30.14F
PELLSTON       LGT RAIN  56  54  93 CALM      30.15S
ROGERS CITY    PTSUNNY   57  54  88 W5        30.15R
TRAVERSE CITY  CLOUDY    60  55  83 CALM      30.15S
$$
MIZ007>008-015-271400-
EASTERN UPPER MICHIGAN

CITY           SKY/WX    TMP DP  RH WIND       PRES   REMARKS
KINROSS        CLOUDY    52  52 100 W6        30.14R
MACKINAC ISLAN CLOUDY    55  54  97 NW5       30.15R
NEWBERRY       CLOUDY    52  50  95 W7        30.14S
S. S. MARIE    LGT RAIN  56  53  90 CALM      30.11F
MUNISING         N/A     60  51  72 NW6       30.16R
$$
MIZ004>006-011>014-085-271400-
CENTRAL UPPER MICHIGAN

CITY           SKY/WX    TMP DP  RH WIND       PRES   REMARKS
MANISTIQUE     PTSUNNY   57  54  91 NW5       30.17R
ESCANABA       MOSUNNY   54  52  94 NW3       30.18R
MENOMINEE      CLOUDY    57  52  82 CALM      30.17F
SAWYER-GWINN   MOSUNNY   54  52  94 CALM      30.17S
$$
MIZ001>003-009>011-084-271400-
WESTERN UPPER MICHIGAN

CITY           SKY/WX    TMP DP  RH WIND       PRES   REMARKS
IRON MOUNTAIN  CLOUDY    55  52  89 NW3       30.18R
HOUGHTON       CLOUDY    56  51  84 NW5       30.17S
COPPER HARBOR    N/A     57  49  74 N8        30.16S
$$

ABBREVIATIONS USED IN REMARKS
   TC - TEMPERATURE IN CELSIUS
  WCI - WIND CHILL INDEX
   HX - HEAT INDEX
  VSB - VISIBILITY



USA.gov is the U.S. government's official web portal to all federal, state and local government web resources and services.